GW2123 Weather Reports


Display with metric or nautical units.
time (UTC)temp
F
wind
direction
speed
MPH
gust
MPH
rain 1hr
in
rain 24hr
in
rain mn
in
humidity
%
barometer
mb
20260509053540 0 0 0.0 0.0 0.00 0.00 0.00 1004.8
20260509053049 0 0 0.0 0.0 0.00 0.00 0.00 1004.7
20260509052541 0 0 0.0 0.0 0.00 0.00 0.00 1004.8
20260509052040 0 0 0.0 0.0 0.00 0.00 0.00 1004.9
20260509051553 0 0 0.0 0.0 0.00 0.00 0.00 1004.8
20260509051043 0 0 0.0 0.0 0.00 0.00 0.00 1004.9
20260509050540 0 0 0.0 0.0 0.00 0.00 0.00 1005.0
20260509050050 0 0 0.0 0.0 0.00 0.00 0.00 1005.0
20260509045540 0 0 0.0 0.0 0.00 0.00 0.00 1005.1
20260509045041 0 0 0.0 0.0 0.00 0.00 0.00 1005.1
20260509044549 0 0 0.0 0.0 0.00 0.00 0.00 1005.0
20260509044040 0 0 0.0 0.0 0.00 0.00 0.00 1005.0
20260509043540 0 0 0.0 0.0 0.00 0.00 0.00 1005.0
20260509043048 0 0 0.0 0.0 0.00 0.00 0.00 1005.0
20260509042544 0 0 0.0 0.0 0.00 0.00 0.00 1005.1
20260509042040 0 0 0.0 0.0 0.00 0.00 0.00 1005.1
20260509041548 0 0 0.0 0.0 0.00 0.00 0.00 1005.2
20260509041041 0 0 0.0 0.0 0.00 0.00 0.00 1005.2
20260509040540 0 0 0.0 0.0 0.00 0.00 0.00 1005.3
20260509040114 0 0 0.0 0.0 0.00 0.00 0.00 1005.4
20260509035540 0 0 0.0 0.0 0.00 0.00 0.00 1005.4
20260509035041 0 0 0.0 0.0 0.00 0.00 0.00 1005.5
20260509034550 0 0 0.0 0.0 0.00 0.00 0.00 1005.5
20260509034040 0 0 0.0 0.0 0.00 0.00 0.00 1005.6
20260509033540 51 0 0.0 0.0 0.00 0.00 0.00 49 1005.6
20260509033045 51 0 0.0 0.0 0.00 0.00 0.00 48 1005.7
20260509032540 51 0 0.0 0.0 0.00 0.00 0.00 48 1005.7
20260509032045 52 0 0.0 0.0 0.00 0.00 0.00 47 1005.8
20260509031545 52 0 0.0 0.0 0.00 0.00 0.00 46 1005.9
20260509031040 52 0 0.0 0.0 0.00 0.00 0.00 45 1005.9
20260509030541 53 0 0.0 0.0 0.00 0.00 0.00 44 1006.1
20260509030049 53 0 0.0 0.0 0.00 0.00 0.00 44 1006.0
20260509025544 53 0 0.0 0.0 0.00 0.00 0.00 44 1006.0
20260509025044 53 0 0.0 0.0 0.00 0.00 0.00 44 1006.1
20260509024549 53 0 0.0 0.0 0.00 0.00 0.00 44 1006.1
20260509024041 53 0 0.0 0.0 0.00 0.00 0.00 44 1006.2
20260509023540 53 0 0.0 0.0 0.00 0.00 0.00 43 1006.2
20260509023046 53 0 0.0 0.0 0.00 0.00 0.00 42 1006.1
20260509022540 54 0 0.0 0.0 0.00 0.00 0.00 43 1006.1
20260509022040 54 0 0.0 0.0 0.00 0.00 0.00 42 1006.2
20260509021548 54 0 0.0 0.0 0.00 0.00 0.00 41 1006.2
20260509021040 54 0 0.0 0.0 0.00 0.00 0.00 40 1006.1
20260509020540 55 0 0.0 0.0 0.00 0.00 0.00 40 1006.1
20260509020047 55 0 0.0 1.0 0.00 0.00 0.00 39 1006.1
20260509015543 56 0 0.0 1.0 0.00 0.00 0.00 38 1006.0
20260509015040 56 0 0.0 1.0 0.00 0.00 0.00 37 1006.2
20260509014550 56 0 0.0 0.0 0.00 0.00 0.00 35 1006.1
20260509014041 57 0 0.0 0.0 0.00 0.00 0.00 35 1006.1
20260509013539 57 0 0.0 0.0 0.00 0.00 0.00 35 1006.0
20260509013051 57 0 0.0 0.0 0.00 0.00 0.00 35 1006.1
20260509012539 57 0 0.0 0.0 0.00 0.00 0.00 34 1006.1
20260509012039 58 0 0.0 0.0 0.00 0.00 0.00 34 1005.9
20260509011556 58 0 0.0 0.0 0.00 0.00 0.00 33 1005.9
20260509011043 58 0 0.0 1.0 0.00 0.00 0.00 33 1005.9
20260509010540 59 0 0.0 1.0 0.00 0.00 0.00 32 1005.9
20260509010048 59 0 0.0 1.0 0.00 0.00 0.00 32 1005.9
20260509005540 59 0 0.0 0.0 0.00 0.00 0.00 31 1005.9
20260509005040 59 0 0.0 0.0 0.00 0.00 0.00 31 1005.9
20260509004604 60 0 0.0 0.0 0.00 0.00 0.00 30 1005.9
20260509004040 60 0 0.0 1.0 0.00 0.00 0.00 30 1005.8
20260509003540 60 0 0.0 1.0 0.00 0.00 0.00 29 1005.9
20260509003047 60 0 0.0 0.0 0.00 0.00 0.00 29 1005.9
20260509002540 61 0 0.0 0.0 0.00 0.00 0.00 29 1005.9
20260509002041 61 0 0.0 5.0 0.00 0.00 0.00 28 1005.9
20260509001549 61 0 0.0 5.0 0.00 0.00 0.00 28 1005.9
20260509001040 62 150 0.0 0.0 0.00 0.00 0.00 27 1005.8
20260509000540 62 0 0.0 0.0 0.00 0.00 0.00 27 1005.7
20260509000048 62 0 0.0 5.0 0.00 0.00 0.00 27 1005.7
20260508235544 62 0 0.0 5.0 0.00 0.00 0.00 27 1005.7
20260508235042 62 0 0.0 0.0 0.00 0.00 0.00 27 1005.8
20260508234548 62 0 0.0 0.0 0.00 0.00 0.00 27 1005.7
20260508234041 62 0 0.0 4.0 0.00 0.00 0.00 27 1005.6
20260508233541 62 0 0.0 4.0 0.00 0.00 0.00 26 1005.6
20260508233048 63 240 0.0 4.0 0.00 0.00 0.00 27 1005.7
20260508232544 63 0 0.0 0.0 0.00 0.00 0.00 26 1005.7
20260508232041 63 0 0.0 0.0 0.00 0.00 0.00 26 1005.8
20260508231546 63 0 0.0 0.0 0.00 0.00 0.00 26 1005.8
20260508231041 63 0 0.0 0.0 0.00 0.00 0.00 26 1005.8
20260508230541 63 0 0.0 0.0 0.00 0.00 0.00 26 1005.8
20260508230044 63 0 0.0 0.0 0.00 0.00 0.00 25 1005.8
20260508225541 64 0 0.0 0.0 0.00 0.00 0.00 26 1005.8
20260508225041 64 0 0.0 0.0 0.00 0.00 0.00 26 1005.9
20260508224551 63 0 0.0 0.0 0.00 0.00 0.00 25 1005.7
20260508224040 63 0 0.0 0.0 0.00 0.00 0.00 25 1005.7
20260508223540 64 0 0.0 0.0 0.00 0.00 0.00 25 1005.8
20260508223051 64 0 0.0 0.0 0.00 0.00 0.00 26 1005.9
20260508222540 64 0 0.0 0.0 0.00 0.00 0.00 26 1005.9
20260508222040 64 0 0.0 0.0 0.00 0.00 0.00 26 1005.9
20260508221548 64 0 0.0 0.0 0.00 0.00 0.00 25 1005.9
20260508221043 64 0 0.0 0.0 0.00 0.00 0.00 26 1005.8
20260508220541 64 0 0.0 0.0 0.00 0.00 0.00 26 1006.0
20260508220049 64 0 0.0 0.0 0.00 0.00 0.00 26 1006.0
20260508215541 64 0 0.0 0.0 0.00 0.00 0.00 26 1006.1
20260508215041 64 0 0.0 0.0 0.00 0.00 0.00 26 1006.1
20260508214554 64 0 0.0 0.0 0.00 0.00 0.00 26 1006.1
20260508214038 63 0 0.0 0.0 0.00 0.00 0.00 26 1006.0
20260508213540 63 0 0.0 0.0 0.00 0.00 0.00 26 1006.0
20260508213049 64 0 0.0 0.0 0.00 0.00 0.00 26 1006.1
20260508212540 63 0 0.0 0.0 0.00 0.00 0.00 26 1006.1
20260508212040 64 0 0.0 0.0 0.00 0.00 0.00 26 1006.1
20260508211550 64 0 0.0 0.0 0.00 0.00 0.00 26 1006.1
20260508211041 64 0 0.0 0.0 0.00 0.00 0.00 27 1006.1
20260508210540 64 0 0.0 0.0 0.00 0.00 0.00 25 1006.1
20260508210053 64 0 0.0 0.0 0.00 0.00 0.00 26 1006.1
20260508205540 63 0 0.0 0.0 0.00 0.00 0.00 24 1006.2
20260508205042 64 0 0.0 0.0 0.00 0.00 0.00 26 1006.3
20260508204550 63 0 0.0 0.0 0.00 0.00 0.00 25 1006.2
20260508204044 64 0 0.0 0.0 0.00 0.00 0.00 24 1006.3
20260508203544 64 0 0.0 0.0 0.00 0.00 0.00 24 1006.5
20260508203056 65 0 0.0 0.0 0.00 0.00 0.00 24 1006.5
20260508202541 64 0 0.0 0.0 0.00 0.00 0.00 24 1006.7
20260508202041 64 0 0.0 0.0 0.00 0.00 0.00 25 1006.7
20260508201544 64 0 0.0 0.0 0.00 0.00 0.00 26 1006.9
20260508201045 64 0 0.0 0.0 0.00 0.00 0.00 25 1007.0
20260508200543 63 0 0.0 0.0 0.00 0.00 0.00 26 1007.1
20260508200042 63 0 0.0 0.0 0.00 0.00 0.00 24 1007.1
20260508195540 63 0 0.0 0.0 0.00 0.00 0.00 25 1007.1
20260508195041 63 0 0.0 0.0 0.00 0.00 0.00 24 1007.2
20260508194555 63 0 0.0 0.0 0.00 0.00 0.00 25 1007.3
20260508194040 63 0 0.0 0.0 0.00 0.00 0.00 25 1007.3
20260508193540 62 0 0.0 0.0 0.00 0.00 0.00 26 1007.4
20260508193103 62 0 0.0 0.0 0.00 0.00 0.00 25 1007.4
20260508192540 62 0 0.0 0.0 0.00 0.00 0.00 25 1007.4
20260508192041 62 0 0.0 0.0 0.00 0.00 0.00 25 1007.5
20260508191549 62 0 0.0 0.0 0.00 0.00 0.00 24 1007.4
20260508191041 63 0 0.0 0.0 0.00 0.00 0.00 24 1007.5
20260508190541 63 0 0.0 0.0 0.00 0.00 0.00 24 1007.6
20260508190050 63 0 0.0 0.0 0.00 0.00 0.00 25 1007.7
20260508185540 63 0 0.0 0.0 0.00 0.00 0.00 25 1007.7
20260508185041 62 0 0.0 0.0 0.00 0.00 0.00 28 1007.8
20260508184600 61 0 0.0 0.0 0.00 0.00 0.00 26 1007.8
20260508184040 60 0 0.0 0.0 0.00 0.00 0.00 27 1007.9
20260508183540 61 0 0.0 0.0 0.00 0.00 0.00 27 1007.9
20260508183050 62 0 0.0 0.0 0.00 0.00 0.00 26 1008.0
20260508182541 62 0 0.0 0.0 0.00 0.00 0.00 28 1008.1
20260508182040 62 0 0.0 0.0 0.00 0.00 0.00 27 1008.0
20260508181559 61 0 0.0 0.0 0.00 0.00 0.00 27 1008.2
20260508181043 61 0 0.0 0.0 0.00 0.00 0.00 26 1008.1
20260508180542 61 0 0.0 0.0 0.00 0.00 0.00 26 1008.5
20260508180055 61 0 0.0 0.0 0.00 0.00 0.00 26 1008.4
20260508175541 61 0 0.0 0.0 0.00 0.00 0.00 28 1008.5
20260508175042 61 0 0.0 0.0 0.00 0.00 0.00 27 1008.5
20260508174547 61 0 0.0 0.0 0.00 0.00 0.00 27 1008.6
20260508174043 61 0 0.0 0.0 0.00 0.00 0.00 27 1008.8
20260508173544 61 0 0.0 0.0 0.00 0.00 0.00 26 1009.0
20260508173048 60 0 0.0 0.0 0.00 0.00 0.00 28 1009.1
20260508172543 60 0 0.0 0.0 0.00 0.00 0.00 28 1009.1
20260508172043 61 0 0.0 0.0 0.00 0.00 0.00 26 1009.0
20260508171551 60 0 0.0 0.0 0.00 0.00 0.00 29 1009.1
20260508171042 59 0 0.0 0.0 0.00 0.00 0.00 29 1009.1
20260508170543 59 0 0.0 0.0 0.00 0.00 0.00 29 1009.2
20260508170050 59 0 0.0 0.0 0.00 0.00 0.00 30 1009.2
20260508165541 59 0 0.0 0.0 0.00 0.00 0.00 30 1009.3
20260508165041 60 0 0.0 0.0 0.00 0.00 0.00 29 1009.4
20260508164548 60 0 0.0 0.0 0.00 0.00 0.00 31 1009.5
20260508164042 59 0 0.0 0.0 0.00 0.00 0.00 31 1009.5
20260508163542 60 0 0.0 0.0 0.00 0.00 0.00 30 1009.7
20260508163050 60 0 0.0 0.0 0.00 0.00 0.00 31 1009.7
20260508162542 59 0 0.0 0.0 0.00 0.00 0.00 31 1009.7
20260508162042 59 0 0.0 0.0 0.00 0.00 0.00 32 1009.9
20260508161549 59 0 0.0 0.0 0.00 0.00 0.00 31 1009.8
20260508161045 59 0 0.0 0.0 0.00 0.00 0.00 31 1009.8
20260508160546 58 0 0.0 0.0 0.00 0.00 0.00 32 1010.0
20260508160121 57 0 0.0 0.0 0.00 0.00 0.00 34 1009.9
20260508155542 57 0 0.0 0.0 0.00 0.00 0.00 33 1010.0
20260508155042 58 0 0.0 0.0 0.00 0.00 0.00 33 1010.0
20260508154551 57 0 0.0 0.0 0.00 0.00 0.00 37 1009.9
20260508154041 57 0 0.0 0.0 0.00 0.00 0.00 36 1010.0
20260508153542 57 0 0.0 0.0 0.00 0.00 0.00 37 1010.0
20260508153051 56 0 0.0 4.0 0.00 0.00 0.00 38 1010.1
20260508152541 56 0 0.0 4.0 0.00 0.00 0.00 38 1010.1
20260508152045 56 0 0.0 4.0 0.00 0.00 0.00 39 1010.2
20260508151553 56 0 0.0 4.0 0.00 0.00 0.00 40 1010.2
20260508151042 56 0 0.0 1.0 0.00 0.00 0.00 40 1010.2
20260508150542 55 0 0.0 1.0 0.00 0.00 0.00 39 1010.3
20260508150052 55 0 0.0 0.0 0.00 0.00 0.00 40 1010.3
20260508145541 55 0 0.0 0.0 0.00 0.00 0.00 41 1010.3
20260508145040 55 0 0.0 3.0 0.00 0.00 0.00 42 1010.3
20260508144549 55 0 0.0 6.0 0.00 0.00 0.00 42 1010.4
20260508144041 55 134 0.0 6.0 0.00 0.00 0.00 42 1010.3
20260508143541 54 97 0.0 5.0 0.00 0.00 0.00 41 1010.3
20260508143103 54 0 0.0 0.0 0.00 0.00 0.00 41 1010.4
20260508142540 54 0 0.0 1.0 0.00 0.00 0.00 41 1010.5
20260508142042 54 0 0.0 1.0 0.00 0.00 0.00 46 1010.5
20260508141556 54 0 0.0 0.0 0.00 0.00 0.00 46 1010.6
20260508141040 53 0 0.0 0.0 0.00 0.00 0.00 49 1010.6
20260508140540 53 0 0.0 0.0 0.00 0.00 0.00 48 1010.6
20260508140052 52 0 0.0 0.0 0.00 0.00 0.00 49 1010.6
20260508135544 52 0 0.0 1.0 0.00 0.00 0.00 49 1010.8
20260508135041 52 0 0.0 1.0 0.00 0.00 0.00 49 1010.8
20260508134548 52 0 0.0 1.0 0.00 0.00 0.00 49 1010.7
20260508134040 51 0 0.0 0.0 0.00 0.00 0.00 48 1010.7
20260508133540 50 0 0.0 0.0 0.00 0.00 0.00 48 1010.8
20260508133056 50 0 0.0 0.0 0.00 0.00 0.00 47 1010.8
20260508132540 50 0 0.0 0.0 0.00 0.00 0.00 44 1010.9
20260508132040 50 0 0.0 1.0 0.00 0.00 0.00 43 1011.0
20260508131548 49 0 0.0 2.0 0.00 0.00 0.00 45 1011.0
20260508131040 49 0 0.0 5.0 0.00 0.00 0.00 41 1010.9
20260508130541 48 0 0.0 5.0 0.00 0.00 0.00 37 1011.0
20260508130055 48 0 0.0 3.0 0.00 0.00 0.00 33 1010.9
20260508125540 47 0 0.0 3.0 0.00 0.00 0.00 31 1010.9
20260508125041 47 0 0.0 3.0 0.00 0.00 0.00 23 1010.9
20260508124548 46 0 0.0 0.0 0.00 0.00 0.00 22 1010.9
20260508124040 46 0 0.0 0.0 0.00 0.00 0.00 22 1011.0
20260508123540 46 0 0.0 0.0 0.00 0.00 0.00 8 1011.0
20260508123052 45 0 0.0 0.0 0.00 0.00 0.00 5 1010.9
20260508122540 45 0 0.0 0.0 0.00 0.00 0.00 100 1010.9
20260508122040 44 0 0.0 0.0 0.00 0.00 0.00 100 1010.9
20260508121601 44 0 0.0 0.0 0.00 0.00 0.00 100 1010.8
20260508121041 44 0 0.0 2.0 0.00 0.00 0.00 100 1010.7
20260508120539 43 0 0.0 2.0 0.00 0.00 0.00 100 1010.6
20260508120053 42 0 0.0 1.0 0.00 0.00 0.00 100 1010.6
20260508115543 41 0 0.0 1.0 0.00 0.00 0.00 100 1010.7
20260508115039 41 0 0.0 1.0 0.00 0.00 0.00 100 1010.5
20260508114551 40 0 0.0 0.0 0.00 0.00 0.00 100 1010.6
20260508114042 39 0 0.0 0.0 0.00 0.00 0.00 100 1010.4
20260508113543 39 0 0.0 0.0 0.00 0.00 0.00 100 1010.4
20260508113054 38 0 0.0 0.0 0.00 0.00 0.00 100 1010.4
20260508112540 37 0 0.0 0.0 0.00 0.00 0.00 100 1010.3
20260508112043 37 0 0.0 0.0 0.00 0.00 0.00 100 1010.3
20260508111549 36 0 0.0 0.0 0.00 0.00 0.00 100 1010.3
20260508111041 36 0 0.0 0.0 0.00 0.00 0.00 100 1010.3
20260508110541 35 0 0.0 0.0 0.00 0.00 0.00 100 1010.2
20260508110053 35 0 0.0 0.0 0.00 0.00 0.00 100 1010.4
20260508105540 35 0 0.0 0.0 0.00 0.00 0.00 100 1010.3
20260508105042 35 0 0.0 0.0 0.00 0.00 0.00 100 1010.4
20260508104548 34 0 0.0 0.0 0.00 0.00 0.00 100 1010.4
20260508104040 34 0 0.0 0.0 0.00 0.00 0.00 100 1010.4
20260508103540 34 0 0.0 0.0 0.00 0.00 0.00 100 1010.4
20260508103054 34 0 0.0 0.0 0.00 0.00 0.00 100 1010.5
20260508102541 34 0 0.0 0.0 0.00 0.00 0.00 100 1010.4
20260508102041 34 0 0.0 0.0 0.00 0.00 0.00 100 1010.4
20260508101549 34 0 0.0 0.0 0.00 0.00 0.00 100 1010.4
20260508101041 34 0 0.0 0.0 0.00 0.00 0.00 100 1010.4
20260508100540 34 0 0.0 0.0 0.00 0.00 0.00 100 1010.4
20260508100047 35 0 0.0 0.0 0.00 0.00 0.00 100 1010.5
20260508095544 35 0 0.0 0.0 0.00 0.00 0.00 100 1010.5
20260508095041 35 0 0.0 0.0 0.00 0.00 0.00 100 1010.6
20260508094602 35 0 0.0 0.0 0.00 0.00 0.00 100 1010.5
20260508094040 36 0 0.0 0.0 0.00 0.00 0.00 100 1010.4
20260508093540 36 0 0.0 0.0 0.00 0.00 0.00 100 1010.5
20260508093047 36 0 0.0 0.0 0.00 0.00 0.00 100 1010.6
20260508092540 36 0 0.0 0.0 0.00 0.00 0.00 100 1010.6
20260508092040 36 0 0.0 0.0 0.00 0.00 0.00 100 1010.6
20260508091543 36 0 0.0 0.0 0.00 0.00 0.00 100 1010.7
20260508091040 36 0 0.0 0.0 0.00 0.00 0.00 100 1010.6
20260508090541 36 0 0.0 0.0 0.00 0.00 0.00 100 1010.6
20260508090042 36 0 0.0 0.0 0.00 0.00 0.00 100 1010.6
20260508085540 36 0 0.0 0.0 0.00 0.00 0.00 100 1010.6
20260508085040 36 0 0.0 0.0 0.00 0.00 0.00 100 1010.6
20260508084547 36 0 0.0 0.0 0.00 0.00 0.00 100 1010.6
20260508084041 36 0 0.0 0.0 0.00 0.00 0.00 100 1010.6
20260508083542 36 0 0.0 0.0 0.00 0.00 0.00 100 1010.6
20260508083129 36 0 0.0 0.0 0.00 0.00 0.00 100 1010.7
20260508082541 36 0 0.0 0.0 0.00 0.00 0.00 100 1010.6
20260508082041 36 0 0.0 0.0 0.00 0.00 0.00 100 1010.7
20260508081555 36 0 0.0 0.0 0.00 0.00 0.00 100 1010.7
20260508081041 37 0 0.0 0.0 0.00 0.00 0.00 100 1010.6
20260508080541 37 0 0.0 0.0 0.00 0.00 0.00 100 1010.6
20260508080056 37 0 0.0 0.0 0.00 0.00 0.00 100 1010.6
20260508075541 38 0 0.0 0.0 0.00 0.00 0.00 100 1010.6
20260508075041 38 0 0.0 0.0 0.00 0.00 0.00 100 1010.6
20260508074552 38 0 0.0 0.0 0.00 0.00 0.00 100 1010.7
20260508074041 38 0 0.0 0.0 0.00 0.00 0.00 100 1010.7
20260508073542 39 0 0.0 0.0 0.00 0.00 0.00 100 1010.8
20260508073056 38 0 0.0 0.0 0.00 0.00 0.00 100 1010.8
20260508072541 39 0 0.0 0.0 0.00 0.00 0.00 100 1010.8
20260508072042 39 0 0.0 0.0 0.00 0.00 0.00 100 1010.8
20260508071555 39 0 0.0 0.0 0.00 0.00 0.00 100 1010.9
20260508071041 40 0 0.0 0.0 0.00 0.00 0.00 100 1010.9
20260508070542 40 0 0.0 0.0 0.00 0.00 0.00 100 1010.9
20260508070050 40 0 0.0 0.0 0.00 0.00 0.00 100 1010.9
20260508065543 41 0 0.0 0.0 0.00 0.00 0.00 100 1010.9
20260508065041 41 0 0.0 0.0 0.00 0.00 0.00 100 1010.9
20260508064606 41 0 0.0 0.0 0.00 0.00 0.00 100 1011.0
20260508064041 41 0 0.0 0.0 0.00 0.00 0.00 100 1011.0
20260508063541 42 0 0.0 0.0 0.00 0.00 0.00 100 1011.0
20260508063047 42 0 0.0 0.0 0.00 0.00 0.00 100 1011.0
20260508062540 42 0 0.0 0.0 0.00 0.00 0.00 6 1011.0
20260508062042 42 0 0.0 0.0 0.00 0.00 0.00 8 1011.0
20260508061549 43 0 0.0 0.0 0.00 0.00 0.00 12 1011.1
20260508061041 43 0 0.0 0.0 0.00 0.00 0.00 15 1011.1
20260508060544 43 0 0.0 0.0 0.00 0.00 0.00 16 1011.0
20260508060049 43 0 0.0 0.0 0.00 0.00 0.00 22 1011.1
20260508055541 44 0 0.0 0.0 0.00 0.00 0.00 25 1011.1
20260508055041 44 0 0.0 0.0 0.00 0.00 0.00 28 1011.1
20260508054553 44 0 0.0 0.0 0.00 0.00 0.00 31 1011.1
20260508054045 44 0 0.0 0.0 0.00 0.00 0.00 30 1011.1